Overview Statistics Trail Chart Weather Telemetry Raw packets
 

This is the latest recevied weather packets stored in our database for station/object OK1FET-4. If no packets are shown the sender has not sent any weather packets the latest 10 day(s).

<< 100 101 102 103 104 105 106 >>
Time Temp. Humidity Pressure Rain* Wind** Luminosity Snow
1787908954 29.44° C 56% 1013.1 hPa - - - -
1787908652 29.44° C 57% 1013.1 hPa - - - -
1787908350 28.89° C 58% 1013.4 hPa - - - -
1787908048 28.89° C 58% 1013.6 hPa - - - -
1787907746 29.44° C 58% 1013.5 hPa - - - -
1787907444 28.33° C 60% 1013.7 hPa - - - -
1787907143 27.78° C 61% 1013.9 hPa - - - -
1787906841 27.22° C 62% 1014.1 hPa - - - -
1787906541 27.22° C 63% 1014.1 hPa - - - -
1787906237 26.67° C 64% 1014.2 hPa - - - -
1787905936 26.11° C 65% 1014.4 hPa - - - -
1787905634 26.11° C 65% 1014.5 hPa - - - -
1787905333 25.56° C 65% 1014.6 hPa - - - -
1787905031 24.44° C 66% 1014.7 hPa - - - -
1787904730 23.33° C 68% 1014.8 hPa - - - -
1787904429 22.78° C 70% 1015 hPa - - - -
1787904127 22.78° C 70% 1014.8 hPa - - - -
1787903826 22.78° C 69% 1014.5 hPa - - - -
1787903525 22.22° C 69% 1014.3 hPa - - - -
1787903224 22.22° C 69% 1014.3 hPa - - - -
1787902923 21.67° C 70% 1014.2 hPa - - - -
1787902622 21.67° C 70% 1014.3 hPa - - - -
1787902321 22.22° C 70% 1014.3 hPa - - - -
1787902019 22.22° C 70% 1014.1 hPa - - - -
1787901718 22.22° C 71% 1013.9 hPa - - - -

* Rain since midnight (hover to see other rain measurements)
** Current wind speed in m/s (hover to see current wind gust speed)